Theta_e
337 334 335 336 335 335 340 345 345 344 344 343 343 342 341 341 341 342 342 342 342 341 342 341 341 341 341 340 340 341 340 340 340 340 339 339 338 337 337 337 336 336 336 336 336 336 335 335 334 334 335 335 336 335 334 334 333 333 333 334 334 334 334 333 332 332 332 332 331 331 331 331 331 331 332 333 332 332 334 334 334 333 331 331 330
338 338 336 336 337 337 340 345 345 345 344 343 343 342 342 342 341 341 340 341 341 340 340 339 339 341 340 341 341 341 341 340 341 341 341 340 339 339 338 337 337 336 337 336 336 336 336 335 334 334 334 335 335 335 334 334 334 332 332 333 334 335 334 333 332 332 332 332 331 331 331 331 330 331 332 332 332 333 333 334 334 332 331 331 330
342 342 340 338 340 342 344 346 346 345 344 344 344 343 342 342 341 340 340 341 340 338 340 340 340 340 340 340 339 340 340 340 340 340 340 340 340 340 338 338 338 338 337 336 336 336 336 335 334 333 334 335 335 335 335 334 334 334 333 333 333 335 335 334 333 332 332 331 331 333 334 333 332 331 332 332 332 333 333 333 333 332 331 330 331
344 343 342 341 343 344 345 345 345 344 344 343 343 342 341 341 341 339 339 340 340 339 339 339 339 338 338 337 336 337 337 338 338 338 339 339 339 339 338 337 338 337 337 336 336 336 336 336 335 334 333 334 335 335 335 334 334 335 334 334 334 334 334 334 334 333 333 332 332 333 333 334 336 334 332 332 332 332 331 332 333 333 332 331 331
343 342 341 340 341 343 344 345 344 343 343 342 342 342 341 340 340 340 339 339 340 339 339 338 337 337 338 337 337 338 338 338 338 338 338 337 338 339 337 336 336 335 335 336 337 336 336 336 336 335 333 334 335 335 335 335 334 335 335 335 334 334 334 334 334 333 333 333 332 332 332 334 337 334 333 333 332 331 330 331 332 332 332 331 330
340 340 339 338 339 341 342 343 343 342 342 342 342 342 341 340 340 340 340 339 340 339 339 339 338 338 339 339 338 339 339 339 339 339 339 338 338 338 337 336 335 335 336 336 337 337 337 337 336 336 335 335 335 335 335 335 335 335 335 335 334 334 334 333 334 333 333 333 332 332 333 334 334 332 334 334 332 331 331 331 331 332 332 331 330
339 339 339 339 339 341 341 341 341 340 340 340 341 341 341 341 341 340 340 340 340 340 340 339 339 339 339 339 338 339 338 339 339 339 339 338 338 338 337 336 335 335 336 336 337 337 337 337 336 336 335 335 335 335 335 335 335 335 335 335 335 334 334 333 333 334 333 333 332 331 331 331 332 331 333 335 335 333 332 331 331 331 331 331 331
339 341 340 339 339 340 339 339 338 338 338 339 339 339 340 340 340 340 339 340 340 340 340 340 339 339 339 339 339 339 339 338 338 337 337 337 337 337 337 336 336 336 336 336 336 335 336 336 335 335 335 335 335 335 334 334 334 335 335 335 334 335 334 333 334 334 333 332 332 331 330 330 331 331 331 333 335 335 333 332 331 331 331 331 332
340 339 339 338 338 338 337 338 337 337 337 337 336 337 337 337 338 338 338 338 338 338 338 338 337 337 337 337 337 336 336 335 334 334 334 334 334 334 335 336 337 336 336 336 334 334 334 334 334 333 334 335 335 335 335 334 335 335 336 335 335 334 331 331 333 333 333 333 332 332 331 330 330 331 331 331 333 334 334 333 331 331 331 331 331
339 337 337 337 337 337 337 337 337 336 337 337 336 336 336 336 336 337 336 336 335 335 335 335 335 335 335 334 335 334 334 334 334 334 334 334 334 334 334 335 336 335 336 336 334 334 334 333 332 331 333 335 335 336 335 335 335 335 336 335 335 334 331 330 333 333 333 333 332 332 331 330 330 331 331 331 332 334 334 333 332 332 331 331 330
338 336 335 335 335 336 335 335 335 335 335 336 336 335 335 335 335 335 334 333 333 332 333 333 333 334 334 334 334 334 335 334 334 334 334 334 334 334 334 334 334 335 335 335 334 334 334 334 332 331 332 332 333 334 335 335 335 335 335 335 334 333 331 331 333 333 333 331 331 332 331 331 331 331 331 331 332 333 334 333 332 332 331 330 330
336 334 334 333 333 333 333 333 332 333 333 333 333 333 333 332 332 332 332 331 331 331 331 332 332 333 333 333 333 334 334 334 334 333 333 333 333 333 333 333 333 334 334 333 333 334 334 333 332 332 331 330 330 331 332 333 333 332 332 332 333 333 331 332 333 334 332 330 331 331 331 331 331 331 330 331 332 332 333 332 332 332 332 331 330
333 333 333 333 332 332 331 331 331 331 332 331 332 332 331 331 330 330 330 330 330 330 331 331 331 331 332 332 332 332 333 333 333 333 332 333 333 333 333 333 333 332 332 332 333 333 334 333 333 332 331 329 329 330 330 331 330 330 331 331 332 331 330 331 333 333 332 332 331 330 331 331 332 331 330 330 331 331 331 331 332 332 332 331 331
332 331 331 331 331 330 330 331 330 330 330 330 330 330 330 329 329 329 329 328 328 328 329 329 329 330 330 330 330 330 331 331 332 332 332 332 332 332 332 332 331 331 330 331 331 332 333 333 333 331 330 329 329 330 330 330 329 329 331 333 332 331 330 330 330 332 332 332 332 331 330 331 332 332 332 331 332 332 331 331 332 331 331 329 330
330 330 330 329 329 329 329 329 329 329 329 329 329 328 328 328 327 327 327 327 327 327 327 327 327 328 328 328 328 329 329 330 331 331 331 332 331 331 332 331 330 330 329 329 329 330 330 331 331 331 329 328 329 330 330 329 329 329 330 333 334 332 332 331 329 331 333 332 332 331 331 332 333 333 333 332 332 332 331 331 331 331 331 329 328
329 329 329 328 328 328 328 328 327 328 328 327 327 327 327 326 326 326 326 326 326 326 326 326 326 326 326 326 326 328 328 329 330 330 331 332 331 331 331 330 330 329 329 329 329 329 329 330 330 329 329 328 328 330 330 329 330 329 330 333 334 333 333 332 330 331 332 331 331 331 332 333 333 333 333 332 332 331 330 331 330 330 331 330 329
328 328 328 327 327 327 326 326 326 326 326 326 326 325 325 325 325 325 325 325 325 325 325 325 325 325 325 325 326 327 328 328 329 330 331 331 331 330 330 330 329 329 329 330 330 330 329 329 329 328 328 329 329 330 330 330 329 330 330 332 334 333 334 333 332 330 329 329 330 331 332 333 333 333 333 333 333 332 331 331 330 329 330 331 330
327 327 326 325 326 326 325 325 325 325 325 324 324 324 324 324 324 324 325 325 324 324 324 324 325 325 325 325 325 326 327 328 329 330 330 330 330 329 329 329 329 329 329 329 330 330 329 329 329 329 329 329 330 330 330 330 330 330 330 331 332 332 332 332 331 330 328 328 329 330 331 333 333 333 334 334 333 332 331 330 330 329 329 329 329
326 325 325 324 324 324 324 324 324 324 323 323 323 322 323 323 323 324 324 324 323 323 324 324 323 323 323 324 325 326 327 328 329 330 330 329 329 329 329 329 329 329 329 329 330 330 329 329 329 329 329 329 330 330 330 330 330 331 331 331 331 331 331 330 329 329 328 328 329 329 330 332 332 332 334 333 333 332 331 329 329 329 329 328 327
325 324 324 323 323 323 323 323 323 323 322 322 322 321 322 322 323 323 323 323 323 323 323 322 323 323 324 324 325 327 328 328 329 329 329 329 328 329 329 328 329 329 329 329 329 329 330 329 329 329 330 330 330 330 329 330 331 331 331 331 330 330 329 329 329 329 328 328 329 329 329 331 332 333 333 333 333 332 331 329 329 329 329 328 327
323 323 323 322 322 322 322 322 322 322 322 322 321 321 321 322 322 323 323 323 323 322 322 322 323 324 324 324 325 326 327 327 328 328 328 328 328 328 328 328 328 328 329 329 329 329 329 329 329 329 329 330 330 330 329 329 330 330 329 329 329 329 328 328 328 328 328 329 330 330 330 331 331 332 333 333 333 331 330 330 329 328 327 328 328
322 322 323 322 322 322 321 321 321 322 322 321 321 321 321 322 322 322 322 322 322 321 321 322 323 324 324 323 323 323 324 325 325 325 326 326 327 327 326 327 328 328 328 329 329 329 329 330 330 329 328 329 329 330 330 330 330 330 328 328 328 327 327 328 328 328 328 329 330 331 332 331 330 331 333 333 333 330 329 330 329 328 328 328 328
322 322 321 321 321 321 321 321 321 321 321 320 320 320 321 321 322 321 322 322 322 321 321 322 323 322 321 321 321 321 322 322 322 323 323 324 325 325 325 326 327 328 328 328 328 329 329 329 330 329 329 328 329 329 330 330 330 329 328 328 327 328 328 328 328 329 329 330 331 330 331 330 330 331 332 331 331 330 330 331 330 328 328 329 328
322 321 320 320 320 320 320 320 321 320 320 320 320 320 321 321 321 320 321 322 322 322 321 321 321 320 319 319 319 319 320 320 319 320 321 321 322 323 323 324 326 326 326 327 327 328 328 328 329 329 328 328 328 329 329 330 330 329 328 328 329 329 329 328 327 329 329 330 330 329 329 329 329 330 330 328 327 328 330 331 328 326 327 328 328
322 321 320 320 319 319 320 320 320 320 319 320 320 320 321 321 320 320 321 321 321 320 320 319 319 318 318 318 318 318 318 318 317 317 318 318 319 321 321 322 323 324 325 326 326 326 326 326 326 326 326 327 328 329 329 330 329 328 328 328 328 328 328 327 327 328 328 327 328 329 329 329 328 328 328 327 326 327 328 329 327 326 327 327 328
320 320 321 320 319 319 320 320 320 319 319 319 320 320 320 320 320 320 321 320 319 318 318 317 317 317 317 317 317 317 317 317 316 315 315 316 317 319 320 320 320 321 323 324 324 324 323 323 323 324 324 325 327 328 328 329 328 328 328 328 328 328 328 327 327 327 327 327 327 327 328 328 327 327 327 328 328 328 328 329 328 328 327 327 328
319 320 320 321 320 319 319 319 320 319 319 319 319 320 320 320 320 320 319 318 318 317 317 316 316 316 316 316 316 316 316 315 315 314 314 314 315 316 318 319 319 319 319 320 320 320 321 321 321 322 322 323 325 327 327 326 326 326 327 326 326 326 327 327 327 327 328 328 327 327 328 327 327 327 327 328 328 329 329 329 328 328 328 327 327
319 319 320 320 321 320 319 319 319 319 319 319 319 319 319 319 319 319 318 317 317 317 317 316 316 316 315 316 315 315 314 314 313 313 312 312 313 314 315 316 317 317 316 315 316 317 318 319 320 320 321 321 323 324 325 324 324 325 325 325 325 325 327 328 328 328 328 327 327 327 326 326 327 327 327 327 328 328 328 328 328 329 329 328 328
318 319 320 321 320 320 319 319 319 319 319 319 319 319 319 319 319 317 317 316 316 316 316 316 316 315 315 315 315 314 314 313 312 312 311 311 312 312 312 313 314 314 313 313 313 315 316 318 319 320 321 321 322 322 323 323 324 325 324 324 325 325 326 328 328 327 327 327 326 327 326 326 326 326 327 327 328 328 328 328 328 329 330 329 328
318 319 320 320 320 318 318 318 318 318 318 318 318 318 318 318 317 316 316 315 315 315 316 316 315 315 315 315 314 314 313 312 311 310 310 310 310 310 310 310 311 312 312 312 312 313 314 315 317 319 320 321 322 323 323 323 323 324 324 324 324 324 325 326 326 326 326 326 325 326 327 327 328 328 328 328 327 327 328 328 328 328 329 329 327
318 319 319 320 319 317 317 318 317 317 317 317 317 317 317 317 316 315 315 314 314 315 315 315 314 314 314 314 313 313 312 312 311 310 309 309 309 309 308 308 309 309 310 310 311 311 311 312 315 317 318 320 321 322 323 323 323 323 323 323 323 323 324 324 325 325 325 324 324 325 325 326 326 328 329 328 327 327 329 330 328 327 328 329 327
318 319 319 319 318 316 317 317 316 317 316 316 316 316 316 316 315 314 314 313 313 313 314 314 314 314 313 313 313 312 311 311 310 309 308 308 307 307 307 307 307 307 307 308 308 308 309 310 313 316 317 317 318 320 322 323 323 323 323 323 323 323 324 324 324 324 324 323 323 323 324 323 323 325 327 328 327 327 329 330 328 327 328 328 327
318 318 317 316 314 313 315 315 315 316 316 316 316 316 316 315 314 313 313 313 313 313 313 313 313 313 313 312 312 311 310 310 309 309 308 307 307 306 306 305 305 305 305 305 305 306 308 309 312 313 314 316 317 318 320 321 322 322 322 323 323 323 323 323 323 322 322 321 321 321 321 321 321 322 324 324 324 324 326 327 327 327 327 326 326
317 316 314 312 311 312 313 314 315 315 316 316 315 315 315 314 313 313 312 312 312 312 312 312 312 312 312 311 311 310 309 309 308 308 308 307 306 306 305 305 304 304 304 304 304 305 306 308 309 310 311 313 314 316 317 319 320 320 320 321 321 321 321 321 321 321 320 321 320 320 320 320 319 319 321 321 321 321 322 322 323 324 324 324 324
315 314 313 311 311 312 312 313 314 315 315 315 314 314 314 313 312 312 311 311 311 311 311 311 311 311 310 309 309 308 308 308 308 307 307 307 306 305 304 304 303 303 302 302 302 303 304 305 306 307 309 310 312 313 315 317 317 316 316 317 318 318 319 318 318 318 319 319 319 320 321 321 320 319 320 320 319 319 320 320 321 322 323 324 324
313 312 311 310 311 311 312 313 314 314 314 314 314 313 313 312 312 311 311 311 311 310 310 309 309 309 308 307 306 306 306 306 306 306 306 306 305 305 303 303 302 302 301 301 302 302 302 303 304 306 307 308 310 312 313 314 315 314 312 312 312 313 314 314 314 314 316 316 316 317 319 320 321 321 320 319 318 318 319 319 318 318 319 320 320
310 310 310 310 311 311 312 313 313 314 314 313 313 313 312 312 311 310 310 310 310 309 309 308 307 306 305 304 304 304 304 304 305 305 305 305 304 304 303 302 301 301 301 300 300 301 301 301 302 303 304 305 307 310 312 313 313 313 312 310 309 308 308 309 309 310 311 313 314 315 315 317 319 321 321 320 318 318 318 318 317 316 316 316 316
309 309 310 310 311 311 312 312 312 313 313 312 312 312 312 311 311 310 310 309 309 308 308 307 306 305 304 303 303 302 302 302 303 303 303 303 303 302 301 300 300 300 300 300 300 300 300 301 301 302 302 303 304 306 309 310 311 312 311 310 309 308 307 307 307 307 307 309 311 313 313 314 316 317 319 320 319 317 316 316 316 316 317 317 316
308 308 309 309 310 310 311 311 312 312 312 312 312 311 311 310 310 309 308 307 307 306 306 305 304 303 303 303 303 303 303 302 302 302 302 302 302 301 301 300 300 299 299 299 299 300 300 300 300 301 302 302 302 303 305 307 308 310 310 309 309 308 306 305 306 305 305 306 307 308 310 312 314 315 317 318 318 317 316 315 315 316 318 318 317
307 307 308 308 309 310 310 310 310 311 311 311 311 311 310 309 308 307 306 305 304 304 304 303 303 302 302 302 302 302 302 302 302 302 302 302 302 301 301 301 301 301 300 299 298 299 299 299 299 300 301 301 302 302 303 304 305 306 307 307 307 305 304 303 304 304 304 304 304 305 306 308 310 312 314 315 316 316 315 315 315 315 315 315 316
306 307 307 307 308 308 309 309 309 310 311 311 310 310 309 309 308 306 305 304 304 304 304 303 303 302 302 301 300 300 300 300 301 301 301 302 302 301 302 301 301 301 301 300 299 299 298 298 299 299 300 300 301 301 302 302 303 304 304 305 304 303 302 302 302 302 302 303 303 303 303 304 306 307 309 310 311 312 312 312 312 312 311 312 314
306 306 306 306 306 306 307 308 308 309 310 310 309 309 309 308 307 306 305 304 304 304 304 304 303 303 302 299 297 297 298 298 299 300 301 301 301 301 301 301 300 300 301 301 300 299 299 298 298 299 299 299 300 300 301 302 302 302 302 303 302 302 302 302 301 301 301 302 302 302 302 302 303 303 304 305 306 307 308 308 308 309 309 310 311
306 306 305 305 305 305 305 306 307 307 308 307 307 307 306 306 305 305 304 303 302 302 302 302 303 303 301 298 296 296 296 296 297 298 299 300 301 301 302 301 300 300 300 301 300 299 299 298 298 298 299 299 300 300 300 301 301 301 301 301 301 302 302 302 301 301 301 301 301 301 301 301 301 301 301 302 302 303 304 304 305 306 307 307 308
306 306 305 304 304 304 304 304 305 305 305 305 305 305 304 304 303 303 303 302 301 300 299 300 302 302 300 298 297 297 296 296 296 296 296 297 298 299 301 301 300 299 299 300 300 299 298 297 297 297 298 299 300 300 300 300 301 301 301 301 301 301 301 301 301 301 300 300 300 300 300 300 300 300 300 300 301 301 301 301 302 302 303 304 305
306 306 305 304 304 304 304 304 303 303 303 303 303 303 303 302 302 301 301 301 300 298 297 298 300 300 299 299 298 298 297 297 297 296 296 296 296 297 298 299 299 299 299 299 299 299 298 297 296 296 297 298 298 299 299 300 300 301 301 300 300 300 300 300 300 300 300 300 300 300 300 300 300 300 300 300 300 300 300 300 300 300 301 302 302
306 306 305 304 304 304 304 304 304 303 303 303 302 302 302 302 302 301 301 300 300 299 299 299 299 299 299 299 299 298 298 297 297 297 297 296 296 296 296 297 298 298 298 298 298 298 297 297 296 296 297 297 297 297 297 297 298 299 300 301 300 300 300 300 300 300 300 300 300 300 300 300 300 300 301 301 300 300 300 300 300 299 299 299 300
306 306 305 305 305 304 304 304 304 304 303 303 303 303 302 302 301 301 301 301 301 301 300 300 300 300 300 300 299 299 298 297 297 297 296 296 296 296 295 295 296 297 298 298 297 297 297 297 297 297 297 297 297 297 297 296 297 297 298 300 300 301 301 301 300 300 300 300 300 300 300 300 301 301 301 301 301 300 300 300 300 299 299 298 298
306 306 305 305 305 304 304 304 303 303 303 303 303 303 303 302 302 302 301 302 302 301 301 301 301 301 300 300 300 299 298 297 297 297 296 296 296 296 296 295 295 296 297 297 297 297 297 297 297 297 297 297 296 296 297 297 297 296 297 299 300 300 300 301 301 301 301 301 301 301 301 301 301 301 301 301 301 300 300 300 299 299 299 298 298
306 305 305 305 305 304 304 303 303 302 302 302 302 302 302 302 302 302 302 302 301 301 301 301 301 301 301 300 300 299 299 298 297 297 296 296 296 296 296 295 295 295 295 296 296 297 297 297 297 297 297 297 297 297 297 297 297 297 298 299 299 300 300 300 300 300 300 300 300 300 301 301 301 301 301 301 301 300 300 299 299 299 298 298 298
305 305 305 304 304 304 304 304 303 303 303 302 302 302 301 301 301 301 301 301 301 301 301 301 301 301 301 301 300 300 299 298 298 297 297 296 296 296 295 295 295 295 295 295 295 296 296 296 297 297 297 297 296 296 297 297 298 298 298 298 298 299 299 299 299 299 299 299 298 299 299 299 299 300 300 300 300 300 300 300 300 299 298 298 298
304 304 304 303 303 303 303 303 303 303 303 302 302 302 302 302 301 301 301 301 300 300 301 300 300 300 300 300 301 300 300 299 298 298 298 297 296 296 295 296 296 296 295 295 295 295 296 296 296 296 297 297 296 296 297 298 298 298 298 298 298 298 298 298 298 298 298 298 298 298 298 298 298 298 298 299 299 299 299 299 300 299 299 298 298
Wind_Speed
9 12 14 18 14 6 9 16 17 16 16 15 15 14 14 15 15 13 11 9 8 9 8 8 8 7 7 6 6 7 8 9 10 10 12 13 13 14 15 16 17 17 16 17 17 18 17 18 19 19 19 21 24 25 25 24 23 23 23 23 23 23 21 20 19 16 11 7 6 9 13 15 12 11 13 15 13 12 14 17 16 17 18 17 17
8 10 11 16 16 11 10 14 16 16 15 15 13 14 15 15 14 13 12 11 9 9 9 9 9 9 8 7 6 6 8 11 12 13 13 13 14 14 14 16 17 16 16 16 18 18 17 17 19 20 20 21 24 26 25 24 24 24 24 23 22 23 22 21 20 15 11 9 6 3 6 11 12 14 15 13 12 12 14 17 17 18 19 17 19
7 8 11 14 14 13 12 13 15 15 15 14 13 14 15 14 13 12 13 11 10 9 9 9 9 9 7 6 6 6 7 8 9 10 10 12 13 14 14 16 17 16 15 14 17 19 19 19 19 20 21 22 23 26 26 25 24 24 24 24 22 21 20 20 20 18 14 10 6 3 3 4 7 12 14 14 13 13 14 16 17 18 19 17 20
9 8 9 11 12 11 11 12 13 14 15 14 14 14 14 13 12 11 11 10 9 9 8 8 7 7 6 5 4 4 5 5 7 8 9 11 12 14 15 15 16 16 13 13 16 20 22 22 22 21 21 22 23 25 27 27 26 26 25 24 22 20 19 19 20 20 18 13 6 2 2 3 3 7 11 13 12 12 14 16 18 19 19 18 20
9 7 6 7 8 8 9 10 12 14 14 13 12 13 12 11 11 10 9 8 7 6 6 6 5 5 5 5 3 3 4 5 8 10 10 11 13 16 16 15 15 14 13 15 18 21 24 24 23 22 22 22 24 26 27 28 28 28 27 26 25 23 21 19 18 19 21 21 13 5 3 2 2 4 8 9 11 14 15 14 16 17 18 19 20
7 6 6 6 6 6 7 9 13 15 13 12 12 12 11 9 9 8 7 6 5 5 5 5 5 5 6 6 5 4 4 5 7 8 8 10 12 15 16 13 13 14 16 19 20 21 23 24 23 23 22 22 24 26 28 28 28 29 28 28 28 28 24 18 17 19 21 23 23 16 8 5 4 6 5 4 8 13 14 13 14 16 17 18 19
6 6 6 6 5 5 7 10 14 15 13 11 12 12 11 9 8 6 5 4 3 4 4 4 4 3 3 3 2 1 3 4 7 8 10 11 11 13 13 10 10 14 18 20 20 19 21 23 22 23 25 24 24 26 28 29 29 29 28 28 29 29 27 22 19 19 20 22 25 23 15 8 9 10 5 3 5 7 10 13 13 14 16 18 18
5 6 6 5 6 8 11 13 14 14 11 10 10 9 9 8 7 6 6 5 3 2 2 1 1 1 3 3 4 4 4 6 8 10 12 12 12 13 13 11 12 14 18 19 19 18 20 22 22 22 26 27 25 26 28 30 29 29 27 27 28 29 28 26 23 21 21 21 24 25 20 12 10 12 9 6 4 3 6 9 11 14 16 17 17
6 7 6 7 10 11 13 13 13 12 11 11 10 8 7 8 7 6 6 6 4 4 3 5 5 5 6 6 6 7 7 8 9 11 12 12 13 15 14 14 15 17 18 19 18 18 19 22 23 22 25 28 27 27 28 29 30 29 28 28 29 31 30 27 25 24 25 24 23 24 22 16 13 14 14 10 5 4 4 4 9 12 13 17 19
7 8 8 10 11 12 12 12 12 12 12 12 10 7 5 5 4 3 4 6 7 6 7 8 9 8 8 8 8 8 8 9 10 11 12 13 14 15 15 15 16 17 17 17 18 18 19 21 23 23 25 28 28 28 29 30 31 31 30 30 30 31 30 29 28 27 28 27 25 25 23 18 14 12 14 14 7 4 4 5 10 12 10 13 20
7 8 9 11 13 13 13 13 13 14 13 12 10 8 7 7 7 7 7 9 9 10 11 12 12 12 12 12 11 11 11 10 11 12 12 13 15 15 16 16 16 16 16 16 17 18 19 21 23 23 24 26 26 27 29 30 31 32 32 31 30 30 30 30 30 29 28 27 26 26 26 24 20 15 17 19 11 5 5 4 9 14 11 12 18
8 7 7 9 12 13 14 15 14 15 14 13 12 10 11 12 13 14 13 12 12 12 12 14 14 14 14 14 15 15 14 14 14 14 15 16 16 17 18 18 18 18 18 19 19 18 19 20 21 22 23 24 24 25 27 28 29 29 28 27 27 28 30 30 30 29 28 27 26 27 28 28 26 22 22 22 17 14 11 5 7 12 10 9 16
8 7 6 5 7 10 12 13 13 15 15 13 13 11 12 13 14 16 16 15 15 14 13 15 15 16 15 15 15 15 16 16 17 17 17 17 17 17 18 19 20 21 21 22 22 20 19 20 22 23 23 24 23 23 26 28 28 27 27 26 25 27 29 30 30 29 28 29 29 28 27 26 26 24 23 22 21 20 15 8 8 12 9 7 12
7 7 6 5 7 9 11 11 13 14 14 13 13 11 10 12 13 15 16 16 16 15 15 15 16 16 15 15 15 15 16 16 17 18 18 17 18 18 18 18 20 21 21 22 22 21 21 22 23 24 23 21 21 22 23 25 25 26 27 27 25 24 27 29 30 29 29 28 28 28 27 27 28 27 23 22 22 20 17 12 9 8 8 8 9
7 7 7 7 9 10 11 12 12 13 13 12 11 10 10 11 13 15 15 16 17 17 16 16 15 15 15 15 15 16 16 17 17 18 17 18 19 18 18 19 20 21 21 21 21 21 22 23 23 22 21 18 17 18 19 20 22 23 25 27 24 22 25 27 27 29 29 27 26 27 28 28 27 27 24 23 23 20 19 19 15 7 4 5 5
7 7 8 8 10 12 12 12 13 13 13 11 10 10 11 11 12 14 14 15 15 16 16 16 16 15 16 16 16 16 17 18 18 17 18 18 19 18 18 20 21 22 22 22 22 22 22 22 23 23 20 16 14 15 16 17 19 20 22 25 23 21 24 25 25 29 30 27 26 25 26 27 26 24 23 23 23 21 20 21 22 15 8 4 3
7 7 7 9 11 11 11 12 12 11 11 11 11 11 11 11 11 12 12 13 15 15 15 16 16 16 17 16 16 16 17 18 18 18 18 18 18 18 18 20 22 22 22 22 22 23 23 21 21 21 18 15 14 15 17 18 18 18 20 22 22 22 25 26 26 29 30 27 27 25 24 25 25 23 23 22 21 21 20 21 23 23 17 8 4
8 8 9 10 11 11 12 12 10 9 11 11 12 12 11 10 10 10 11 14 15 14 14 15 16 17 18 17 16 16 17 18 18 19 18 17 18 19 19 20 22 22 22 22 22 23 24 21 19 19 17 16 16 16 16 15 14 14 17 20 21 22 23 24 24 26 27 26 26 27 25 24 24 23 22 21 21 21 21 21 22 24 21 14 8
7 7 7 9 10 10 11 10 9 10 12 13 13 12 9 7 8 10 13 15 15 15 16 17 17 17 16 16 16 16 17 18 18 18 18 19 20 20 20 21 22 22 22 22 22 22 23 21 18 17 16 16 15 16 15 12 10 11 14 17 18 18 19 22 23 20 22 22 21 23 24 22 22 22 21 20 21 22 21 22 22 20 20 18 15
6 7 7 8 9 9 9 10 10 10 11 11 11 11 10 9 10 12 14 16 16 17 19 18 17 16 16 17 18 19 19 19 19 19 19 20 20 20 21 22 22 22 21 20 20 21 21 19 17 15 12 12 11 11 11 8 6 7 10 12 11 11 11 14 19 16 16 19 18 19 20 20 20 20 20 20 21 21 20 20 20 18 17 16 16
6 6 6 7 7 8 10 10 8 8 9 11 11 10 9 9 11 15 17 18 18 19 18 17 16 17 18 20 21 21 21 21 21 21 21 22 21 21 22 22 22 22 21 20 20 20 19 17 15 13 10 8 7 6 5 2 2 3 5 7 6 5 5 5 13 12 14 17 18 17 18 21 21 19 19 19 20 19 17 17 16 16 17 16 15
6 6 6 6 7 9 10 8 6 7 11 13 12 10 10 12 15 19 19 19 18 18 17 16 16 18 19 21 22 22 22 22 22 23 23 23 23 23 23 22 22 22 20 20 19 19 18 15 13 12 9 6 5 5 4 3 3 5 4 6 5 4 3 5 10 11 11 12 15 16 17 19 18 17 17 16 16 16 16 16 15 16 19 19 18
7 6 5 6 8 11 11 8 8 11 12 13 12 12 14 17 19 20 18 16 15 16 16 16 17 19 20 21 22 23 23 23 24 23 23 23 23 23 24 24 23 22 21 20 19 19 18 15 14 14 12 10 9 8 8 7 7 7 5 4 3 3 5 6 8 10 11 11 12 13 14 13 12 13 13 12 11 12 16 18 16 18 20 20 20
7 5 5 6 9 10 9 8 11 13 13 12 12 13 15 18 19 18 15 12 13 16 18 18 19 20 21 21 22 23 24 25 24 23 22 22 21 22 23 25 24 22 22 22 21 21 21 19 16 15 14 14 13 12 11 10 9 8 5 4 3 3 5 6 7 8 9 11 10 9 9 8 9 11 10 10 9 8 12 18 19 21 21 20 22
6 5 4 6 8 7 7 9 12 13 12 11 13 14 16 17 17 16 14 14 16 19 21 21 21 22 22 22 23 24 25 25 24 23 22 21 21 21 21 23 25 23 22 23 23 22 22 21 20 18 17 17 15 14 13 12 11 9 6 6 6 4 4 2 2 4 4 6 8 8 9 8 8 8 7 10 12 10 12 16 18 20 20 20 23
6 6 5 5 6 6 7 10 12 12 13 13 14 15 17 17 16 17 18 20 21 22 23 23 22 22 22 22 23 24 24 24 23 23 22 22 22 21 21 22 25 25 24 23 22 22 22 22 21 20 20 19 17 15 15 14 13 10 8 9 9 8 7 6 3 3 3 3 5 7 8 8 6 8 10 12 14 15 16 15 14 15 17 17 18
6 6 5 4 5 5 7 9 13 14 15 15 14 15 16 16 18 20 22 24 24 23 23 22 21 21 22 23 23 23 24 23 23 23 23 23 23 23 23 24 25 26 26 25 25 24 23 23 23 22 21 19 17 17 16 16 16 13 11 12 12 9 8 7 4 2 2 2 4 3 5 6 6 10 15 15 15 16 15 13 12 12 13 14 14
6 5 3 3 3 4 6 10 13 14 15 16 15 14 15 17 21 24 24 23 24 23 22 21 21 22 23 22 23 23 24 22 22 23 23 24 24 24 25 25 25 25 25 25 26 27 26 24 24 24 23 21 20 20 19 19 19 16 13 13 13 10 7 4 3 3 4 3 4 4 5 7 7 10 13 13 15 15 13 12 13 13 12 14 16
7 5 4 4 3 3 7 10 12 14 15 14 12 12 15 20 24 26 24 24 24 23 22 22 23 23 22 22 22 23 23 22 23 24 24 24 24 25 27 27 27 26 26 26 27 29 29 29 26 26 26 25 25 24 22 21 21 19 17 15 14 14 12 9 8 8 9 6 2 2 5 6 7 9 9 7 10 11 10 11 14 13 12 15 17
7 5 4 4 3 5 9 11 13 14 13 12 14 18 21 24 26 26 24 24 25 24 23 22 23 24 22 22 22 22 22 23 24 24 25 25 25 26 27 28 28 28 28 29 30 31 32 32 32 30 29 28 27 26 23 22 21 20 18 18 17 17 16 14 13 13 12 10 7 4 2 1 2 5 6 5 7 8 7 8 12 12 13 16 18
7 6 5 4 3 7 10 12 14 14 14 16 19 23 26 27 27 26 24 24 25 25 23 23 23 23 22 22 22 22 22 23 24 24 25 26 26 27 27 27 28 29 29 30 31 31 31 32 34 33 32 30 28 25 23 22 21 19 18 19 19 18 17 16 16 16 15 13 11 10 9 8 6 2 3 5 7 7 6 8 10 12 14 16 18
7 5 4 3 4 6 7 11 14 15 18 20 21 23 27 27 26 25 25 26 26 25 24 24 23 23 23 23 22 22 23 23 24 25 26 26 27 28 28 28 28 29 30 31 32 33 32 32 33 34 33 31 29 27 25 23 22 21 20 20 20 19 18 18 17 18 18 16 13 10 8 8 9 8 4 4 8 7 6 8 10 10 12 15 17
6 5 5 5 6 8 10 13 15 16 19 20 21 25 27 26 25 25 26 26 26 25 24 24 23 23 24 23 22 22 23 24 24 25 25 27 29 30 29 29 28 28 30 32 33 34 34 34 34 35 34 32 30 27 26 25 24 24 24 25 24 23 22 21 21 22 21 19 16 13 10 8 8 10 12 14 15 13 11 12 12 11 12 13 13
6 6 7 9 11 12 13 15 15 17 19 20 23 27 28 26 26 26 26 26 24 24 25 24 24 24 23 23 22 23 24 25 25 25 26 27 28 28 28 28 28 29 31 32 33 34 35 35 35 36 36 34 31 27 24 24 25 26 26 27 27 27 27 27 26 25 23 22 20 19 16 12 8 12 16 16 15 15 15 15 15 14 12 11 11
8 7 8 11 13 14 16 16 13 16 21 22 25 28 28 28 28 27 25 24 23 23 24 25 25 25 24 23 23 24 25 26 26 27 28 28 28 28 27 27 28 30 30 31 33 34 35 35 36 37 37 37 34 29 25 24 25 26 28 29 30 30 30 30 29 28 27 25 24 23 21 17 11 11 13 14 14 15 18 21 22 21 17 15 13
10 10 10 12 12 14 18 18 15 19 24 25 26 28 28 28 27 26 25 23 23 24 25 25 26 25 25 24 24 25 25 25 25 26 27 27 27 27 27 27 29 30 31 32 34 35 36 36 36 37 39 39 36 32 28 26 25 27 28 30 31 31 30 30 30 29 28 26 26 26 26 23 17 13 13 14 15 16 20 25 27 27 26 25 23
15 15 14 13 12 14 18 19 20 23 25 26 28 28 29 28 26 25 24 24 25 25 25 26 27 26 26 26 26 27 27 27 27 28 27 26 26 25 26 27 30 31 32 32 33 34 36 37 38 38 39 40 38 34 30 27 26 27 29 31 32 32 32 32 31 31 30 28 27 26 26 26 23 17 15 16 18 19 22 26 28 29 30 29 27
16 16 15 15 15 16 18 20 24 25 25 27 28 29 29 27 24 23 24 25 26 25 25 26 26 26 26 26 26 28 29 29 30 30 29 28 27 27 26 28 30 32 31 31 32 34 36 37 39 39 38 40 40 37 33 30 28 27 29 30 31 32 33 33 32 32 33 32 31 27 26 25 23 19 16 16 18 20 23 24 23 23 24 23 22
17 17 17 17 17 18 19 21 24 25 26 27 28 28 29 26 24 25 26 26 26 26 25 26 25 26 26 26 26 27 27 27 28 27 27 27 27 27 27 29 31 32 32 32 33 35 36 36 37 38 38 39 40 39 37 34 31 29 29 29 30 32 33 33 32 33 34 35 34 32 29 26 23 19 16 16 16 17 19 20 18 19 20 19 16
18 18 18 18 18 19 20 20 21 22 25 27 28 29 28 26 25 26 27 27 27 27 27 27 27 28 28 28 28 27 26 25 25 24 24 24 24 24 25 27 29 30 32 32 33 34 35 34 34 36 37 38 38 38 38 36 35 33 31 30 31 32 32 32 32 33 34 35 34 34 32 29 26 23 21 20 19 19 20 20 19 20 20 18 17
19 18 18 19 19 20 21 20 19 20 24 26 27 26 25 25 25 26 26 25 25 25 26 27 27 28 29 28 27 26 25 25 24 24 24 25 24 24 24 25 26 27 29 31 31 33 34 33 33 34 35 35 35 36 36 36 35 35 34 33 34 33 32 32 33 33 34 34 34 33 31 29 28 27 25 24 24 23 23 23 22 20 17 15 17
20 19 20 22 22 23 23 21 21 23 24 25 26 25 24 24 24 25 25 24 23 23 23 24 25 26 28 28 28 27 26 26 25 25 26 26 26 27 27 26 26 27 27 28 29 30 31 32 33 33 32 32 32 33 34 34 34 34 34 34 34 32 31 32 33 33 32 31 31 31 30 28 27 28 27 26 26 25 25 24 22 20 17 16 17
20 20 21 24 24 23 23 22 22 23 24 24 26 26 26 25 25 24 24 24 24 24 24 24 26 28 29 30 31 30 30 30 29 29 28 28 27 27 27 27 28 28 27 27 27 28 29 31 32 32 32 31 30 30 31 31 31 32 32 32 32 31 30 31 32 31 29 28 27 27 27 26 26 27 27 27 27 27 26 25 23 21 20 19 19
19 20 22 24 24 23 23 23 21 22 23 23 25 25 25 25 24 23 23 24 25 25 25 26 27 28 28 29 32 33 33 34 34 34 34 32 30 29 28 28 28 28 27 26 26 26 27 28 29 30 31 31 30 29 29 28 28 28 28 29 29 29 29 29 29 28 26 24 24 24 24 25 26 26 26 26 27 27 26 25 24 23 23 21 21
21 22 23 24 24 23 23 22 21 21 22 22 23 24 25 24 23 22 23 24 25 27 29 30 29 28 27 27 30 32 34 35 35 36 36 35 33 32 30 28 28 28 28 27 26 25 26 26 27 28 29 29 29 28 27 26 26 25 25 25 25 26 26 25 25 24 22 21 21 21 22 23 24 24 25 25 26 25 24 24 23 22 23 23 22
22 22 23 24 23 23 23 22 21 21 21 21 22 23 24 22 21 21 22 23 24 25 27 29 29 28 28 27 27 28 30 33 35 36 36 35 35 35 33 30 29 28 27 27 26 25 25 25 26 26 27 27 27 27 26 25 24 24 23 23 22 22 22 22 22 21 20 19 19 20 20 21 21 22 22 22 22 21 21 22 21 21 20 20 20
22 23 24 23 23 22 21 21 21 20 21 21 21 22 23 22 21 20 21 21 21 22 22 23 25 26 27 27 27 26 27 30 32 34 36 36 37 37 37 35 31 28 25 25 25 25 25 25 25 25 26 26 26 26 26 26 25 24 23 22 22 22 21 21 20 19 18 17 17 17 17 17 17 18 18 18 18 17 18 18 18 18 17 17 16
22 23 23 22 22 21 21 21 21 21 21 22 21 21 20 20 20 20 20 20 19 19 19 20 20 22 24 25 26 26 27 29 31 32 34 34 35 36 37 36 33 30 26 22 22 22 23 23 23 23 24 26 27 27 27 27 27 25 24 23 24 24 24 23 22 21 20 20 19 19 18 18 18 18 18 18 18 17 17 17 16 16 15 13 13
21 24 23 22 22 22 22 22 21 21 21 22 22 21 20 19 18 18 19 21 21 21 22 21 19 19 20 21 23 24 26 27 29 30 31 32 32 33 34 34 33 33 30 25 21 19 18 19 20 21 23 25 26 25 24 23 23 23 23 23 23 23 23 23 22 22 24 25 25 24 23 23 22 22 21 20 19 18 18 17 16 15 14 13 11
21 24 23 22 22 21 21 21 21 20 20 21 21 21 20 19 19 19 20 22 22 22 22 22 21 19 17 17 18 21 22 24 26 27 28 29 30 31 32 33 33 33 32 31 27 23 19 19 20 21 23 24 25 25 23 20 20 20 21 22 22 22 21 22 22 23 25 26 27 26 26 25 24 24 23 21 19 18 18 17 15 14 13 12 12
23 25 25 23 22 20 20 21 21 21 22 22 22 22 21 20 20 20 21 21 22 21 21 22 22 22 19 17 15 15 16 19 21 23 24 26 27 28 29 30 31 31 31 32 31 29 26 24 24 24 24 24 25 27 26 22 20 20 21 22 22 21 21 22 23 24 26 26 25 25 25 25 25 25 24 22 21 20 18 16 14 13 12 12 12
Wind_Direction
108 117 122 121 125 146 134 127 130 131 134 136 137 140 139 139 140 140 143 145 147 155 168 180 183 191 204 219 233 246 258 250 240 242 248 254 256 253 252 248 244 243 243 241 242 243 244 247 250 249 248 244 240 242 243 244 245 245 243 241 240 240 239 238 241 244 244 245 253 253 248 237 233 251 237 210 214 217 190 182 182 180 184 191 197
111 119 124 124 130 152 152 132 131 134 137 141 142 142 142 141 139 138 145 152 154 159 169 175 182 189 191 201 216 233 246 241 237 241 247 251 249 249 251 248 243 243 242 242 243 244 245 249 253 252 250 246 243 242 243 245 247 248 246 243 242 240 237 236 236 236 230 220 213 208 235 239 231 231 227 209 203 212 196 181 181 181 182 187 192
126 130 136 141 144 149 148 135 134 137 137 140 141 140 139 137 138 141 147 152 154 158 167 177 190 202 203 212 224 228 231 233 237 242 251 254 250 250 250 245 243 245 247 248 247 247 247 247 249 251 251 249 246 242 241 242 244 246 244 242 240 239 238 236 233 232 223 209 195 188 195 208 225 228 224 214 199 202 203 188 184 188 184 182 187
144 137 135 143 144 142 142 138 137 139 137 137 142 145 143 139 140 145 147 153 160 163 171 182 193 205 212 224 242 252 248 244 248 248 253 257 258 258 250 244 248 251 254 256 252 249 248 246 245 247 249 250 249 245 241 240 240 242 241 239 235 233 234 231 230 230 220 204 177 146 159 151 207 223 216 216 203 199 209 195 186 190 187 185 189
143 130 113 118 125 129 135 135 132 130 130 130 135 141 140 135 136 140 144 153 163 168 177 184 182 184 194 205 211 234 246 247 254 257 260 263 263 262 257 254 258 258 258 256 249 245 245 247 247 248 250 250 250 248 246 243 242 241 239 237 233 229 229 226 223 224 221 218 208 178 144 173 216 193 192 211 210 208 212 198 189 193 191 192 195
120 116 106 105 110 116 122 121 113 104 102 105 108 117 121 121 130 139 146 155 162 170 180 184 184 186 195 204 205 221 246 261 271 278 289 285 274 271 268 264 265 263 260 258 253 246 246 250 253 255 257 255 253 252 250 248 246 243 240 237 235 232 229 223 216 217 222 224 220 214 210 197 164 152 156 189 203 211 212 199 195 197 196 198 199
96 102 97 99 109 114 105 100 97 89 87 93 92 95 99 99 105 111 117 139 167 183 189 191 199 210 213 211 204 271 285 302 311 312 315 311 303 294 283 273 276 270 263 265 264 256 253 256 258 259 260 260 258 255 253 251 249 246 243 239 238 235 228 222 215 210 214 220 220 219 216 195 162 162 173 176 176 203 208 199 200 201 201 202 202
94 96 90 93 99 99 93 88 89 87 85 86 80 79 79 70 70 71 67 73 84 99 107 87 50 15 14 17 20 11 349 342 338 326 324 324 324 321 309 296 300 295 282 277 272 263 260 260 259 257 257 256 254 254 255 253 250 247 245 242 239 236 229 224 218 208 206 212 214 214 214 207 186 184 203 206 162 169 194 195 202 203 204 205 205
103 104 103 99 93 90 91 89 88 87 81 73 65 60 55 48 51 52 45 45 44 48 42 23 18 16 19 22 18 12 360 350 341 330 329 331 330 333 330 316 314 316 307 294 284 275 269 265 264 259 255 253 250 250 252 251 249 246 243 241 238 236 234 229 222 214 211 210 209 209 210 208 199 198 210 214 184 161 176 185 192 196 204 209 211
108 109 105 99 97 95 95 89 84 84 81 78 70 58 55 43 30 29 43 52 49 43 37 29 22 17 15 14 6 360 349 338 334 332 335 338 335 336 336 329 321 320 317 309 302 296 285 276 273 266 256 253 251 250 249 247 247 245 241 240 237 235 235 232 226 219 216 213 210 206 201 200 199 197 206 207 191 164 175 182 183 185 194 205 213
105 101 95 93 94 93 90 82 77 80 82 82 75 60 51 40 34 46 57 56 47 36 33 30 27 25 23 20 16 11 2 352 347 347 347 346 343 341 341 339 333 328 325 320 314 307 298 288 281 274 264 260 258 256 252 248 247 244 239 237 239 238 236 232 228 223 219 215 212 209 204 201 198 193 195 194 185 162 163 172 187 192 193 193 207
102 95 91 90 87 83 80 75 72 74 75 71 66 56 46 45 48 49 48 43 33 26 26 25 23 23 23 22 22 21 16 10 4 0 357 352 348 348 346 344 339 333 326 321 316 309 301 296 290 283 277 274 272 268 263 257 256 256 250 242 240 239 234 228 225 223 219 214 210 211 210 205 199 197 197 194 193 189 179 167 181 187 189 191 200
106 100 94 83 78 77 75 74 70 70 70 63 57 52 43 42 44 41 39 37 32 29 28 25 24 23 21 20 20 18 16 14 10 6 2 358 354 352 348 343 338 333 327 322 319 313 303 299 298 292 285 283 281 277 271 264 260 261 261 249 234 230 228 224 223 221 217 213 210 210 209 205 202 205 207 204 202 195 182 173 177 182 179 176 190
109 104 96 81 80 81 79 78 74 71 70 62 55 49 40 37 37 36 35 34 31 29 26 22 22 22 20 18 16 13 12 12 10 6 5 2 357 352 347 345 342 339 334 327 322 316 306 301 301 297 290 286 284 282 279 273 266 261 259 254 243 236 232 226 224 222 217 214 212 210 207 205 206 212 214 209 202 192 183 175 167 174 173 159 176
105 104 99 91 87 83 78 78 75 72 69 63 56 46 41 38 33 32 34 32 29 27 25 20 17 18 18 15 11 9 9 9 8 5 4 360 355 352 350 349 348 343 338 334 329 323 314 306 303 300 294 288 287 289 284 277 273 268 261 258 257 248 234 225 222 221 218 213 211 211 208 206 208 212 212 209 206 203 199 190 176 162 152 157 172
110 108 101 96 91 85 80 76 73 73 72 68 61 53 49 42 36 36 36 33 30 29 27 22 18 18 17 13 8 8 7 6 4 5 5 360 356 355 352 350 349 345 341 339 336 332 324 314 305 301 297 291 288 289 283 271 266 266 261 257 257 246 235 233 227 221 218 214 209 210 209 207 210 212 212 211 211 211 209 202 192 180 163 156 172
117 115 110 104 99 94 90 84 78 79 79 75 70 64 57 49 44 39 37 38 36 33 29 23 22 23 20 15 11 9 7 3 2 4 4 1 359 357 353 352 351 347 343 340 337 335 332 323 312 307 303 296 288 283 279 272 265 261 256 253 253 245 236 232 226 219 218 217 214 212 212 212 212 210 210 210 210 210 208 206 203 195 184 166 160
115 109 105 98 94 94 93 89 84 85 84 78 70 66 65 58 47 38 41 46 41 33 31 29 28 25 20 15 11 9 7 4 6 8 7 6 4 0 358 357 353 348 344 341 341 339 337 332 325 318 311 301 297 291 283 277 272 264 256 253 250 247 239 226 217 213 210 212 215 214 213 214 211 208 209 211 210 210 207 204 203 201 195 182 161
100 95 93 86 82 86 92 91 87 85 81 73 67 67 72 65 50 47 50 50 44 39 37 34 30 25 19 14 13 14 12 10 13 13 11 11 9 7 5 1 356 352 348 347 348 344 341 338 331 324 315 306 303 299 290 283 274 257 254 258 253 253 251 230 218 215 207 206 211 212 212 213 212 209 211 212 211 210 208 203 196 192 195 191 172
93 92 87 84 82 79 84 87 84 86 85 79 73 72 74 66 59 60 56 51 48 42 36 34 30 26 23 21 21 22 20 18 20 19 17 15 13 12 9 4 1 359 356 357 357 351 348 344 336 329 322 313 309 305 299 292 280 258 260 269 259 267 273 223 200 206 210 205 207 212 215 214 211 211 212 211 208 206 205 200 188 182 192 194 179
95 96 89 95 104 93 89 92 94 104 106 94 83 75 72 68 67 67 60 55 50 41 35 35 34 30 28 29 29 29 29 29 30 29 27 23 20 17 13 10 8 7 5 6 4 0 359 356 346 340 330 322 334 346 344 338 338 324 301 291 266 272 299 170 167 190 208 207 208 211 218 218 215 216 217 214 209 203 199 195 187 184 191 191 184
100 100 97 114 132 119 111 115 121 121 111 97 86 73 62 64 68 66 60 56 50 43 39 38 38 35 34 33 33 34 35 36 35 33 30 26 25 22 19 17 15 14 15 13 10 10 12 9 2 359 357 357 13 24 24 27 31 29 353 309 284 259 257 166 165 186 195 205 215 216 223 225 222 224 224 221 213 197 191 197 194 186 185 187 192
101 103 122 150 142 131 135 139 115 102 99 95 88 74 63 67 68 63 59 59 56 51 46 43 43 40 36 32 31 32 34 34 32 30 28 24 22 21 21 21 19 20 25 24 20 22 25 25 21 19 21 27 33 36 30 26 28 34 23 327 296 256 238 208 196 196 192 204 219 224 232 231 225 228 225 223 219 195 191 199 191 185 189 192 197
118 131 158 156 131 124 137 134 107 95 93 92 88 80 74 74 71 64 61 65 63 56 50 49 48 42 35 32 32 32 32 31 28 26 24 21 20 23 24 23 22 26 32 32 30 30 33 37 36 29 25 28 37 43 39 35 31 29 21 349 323 272 247 226 219 222 213 212 217 228 243 240 230 231 225 223 226 205 201 202 186 182 192 197 197
136 144 136 116 107 108 115 115 111 105 99 91 85 82 81 79 73 65 61 65 65 58 53 51 48 42 38 36 35 34 32 31 27 23 22 21 21 25 27 25 25 28 32 36 35 33 36 40 39 36 35 35 38 42 45 45 40 36 32 15 6 344 314 297 247 255 257 240 232 235 245 244 241 246 236 217 212 207 210 207 189 183 192 200 199
111 106 96 100 115 131 133 125 119 110 99 91 85 84 84 81 73 64 63 66 63 56 52 49 45 41 40 38 37 36 34 32 30 26 26 28 28 31 34 34 34 33 35 41 44 40 39 41 40 38 39 42 44 45 48 51 48 47 50 44 39 25 5 4 349 291 294 257 238 240 245 242 235 238 230 208 196 200 209 208 196 190 192 195 198
95 92 95 120 138 151 150 133 121 114 104 97 92 90 89 84 77 72 71 69 62 55 52 50 47 45 43 41 40 39 37 35 32 31 32 34 36 39 41 44 46 44 40 43 46 46 44 43 44 42 40 44 51 54 53 51 48 45 46 48 44 29 11 13 7 324 289 256 260 262 250 243 227 217 215 201 188 192 201 201 195 191 191 190 194
104 111 133 162 176 174 147 128 122 121 114 106 101 98 96 89 82 77 74 69 64 59 55 52 50 48 44 44 45 42 40 38 35 35 37 38 40 43 45 48 52 51 46 42 44 47 48 46 46 47 45 45 50 53 52 48 46 47 53 54 49 41 39 51 62 51 44 6 313 283 236 229 220 207 205 200 191 190 193 192 184 181 190 194 194
128 148 167 181 203 160 127 119 114 113 113 110 104 99 95 87 81 77 73 70 67 61 57 55 53 48 45 46 47 44 41 39 37 38 40 42 43 46 48 50 51 53 52 49 48 48 49 48 48 50 50 49 50 50 50 49 51 58 65 64 58 58 64 76 84 79 78 83 74 249 220 212 211 206 204 203 196 196 200 192 178 176 190 195 195
144 158 169 183 175 120 110 105 98 97 102 100 85 80 84 83 79 76 72 69 68 62 57 57 55 49 46 48 49 46 42 41 40 40 41 44 48 50 49 49 50 53 54 54 53 51 48 47 48 51 53 55 57 56 57 57 58 61 65 63 59 58 62 67 70 68 69 71 65 54 59 9 250 207 202 202 190 194 213 203 184 185 195 195 195
151 161 168 177 148 119 114 109 103 95 88 85 79 78 84 84 79 76 72 69 67 61 56 57 57 53 49 50 50 47 44 44 44 43 44 47 50 52 51 49 50 52 52 53 53 51 47 45 47 50 51 54 57 60 61 61 59 58 58 59 57 57 62 67 66 61 56 53 52 53 53 41 29 32 213 206 182 177 200 208 202 201 199 198 202
154 157 143 127 110 100 100 108 110 101 90 84 81 84 88 86 81 77 73 69 66 61 58 58 57 55 53 53 52 49 48 49 48 49 49 49 52 53 52 51 50 49 50 50 50 49 48 46 48 49 49 50 53 58 62 62 61 60 59 61 62 61 62 67 70 69 67 64 60 53 50 52 49 46 58 130 137 135 158 183 196 201 190 193 203
145 121 88 72 56 49 66 85 90 92 94 89 85 89 91 88 84 79 73 69 66 62 59 59 57 56 55 55 53 51 50 52 52 52 51 50 51 52 51 51 51 50 49 49 48 48 49 49 50 49 48 48 50 54 61 66 67 67 65 65 66 65 67 70 74 75 75 73 67 58 52 56 65 75 90 104 110 114 132 156 168 172 170 174 185
119 94 73 55 43 42 59 71 73 82 92 91 88 91 90 86 82 78 73 71 68 63 59 58 58 58 56 55 54 53 54 55 55 54 53 51 50 49 49 50 50 50 50 48 47 48 50 50 50 49 48 48 48 51 58 65 70 72 73 73 73 73 73 72 70 69 70 70 67 63 59 60 81 100 101 99 101 110 119 125 129 134 141 148 152
101 89 73 60 53 48 49 49 58 78 84 84 89 90 87 83 80 77 75 73 71 65 61 59 58 57 57 56 56 56 57 57 57 56 55 53 51 49 49 50 51 51 50 49 47 48 49 50 50 50 49 48 47 50 57 64 69 72 75 77 79 79 78 75 71 67 65 63 62 62 62 64 77 96 94 89 95 106 107 102 99 99 101 105 108
98 96 87 75 66 57 51 48 63 83 83 83 87 88 85 83 80 78 77 75 71 68 65 62 60 59 59 58 58 59 59 58 57 57 54 52 51 50 49 51 53 54 53 52 50 49 48 48 49 50 50 48 46 48 53 60 66 69 70 71 73 75 76 75 72 69 67 63 59 59 61 64 74 94 101 98 102 106 102 95 90 89 88 87 87
97 98 97 93 83 70 64 64 72 81 86 87 87 86 85 83 81 80 78 75 73 72 69 67 64 63 63 62 62 63 63 61 61 60 58 57 55 53 52 52 54 55 54 53 52 51 50 49 49 50 49 48 47 48 50 55 62 66 67 67 66 67 67 67 66 66 66 67 64 61 60 62 71 87 103 107 104 100 95 90 85 83 82 82 82
103 104 103 100 94 84 78 76 74 79 87 91 89 88 87 84 82 82 79 76 74 73 72 70 67 66 66 66 65 65 65 65 64 64 64 64 63 61 59 58 58 57 56 55 55 54 53 51 51 51 51 50 49 50 52 53 57 62 65 66 66 65 64 63 62 61 61 63 65 65 65 65 68 72 83 96 99 96 93 88 82 81 81 80 81
111 110 105 102 100 93 87 82 77 80 89 93 91 90 88 86 85 83 80 77 76 75 76 74 72 70 69 68 67 66 65 65 64 64 64 64 65 65 63 61 60 58 57 57 56 56 55 53 53 52 53 53 52 52 53 54 55 59 62 65 66 66 64 62 61 59 58 59 60 62 64 69 74 77 79 85 93 98 97 93 91 92 92 89 90
117 113 109 108 103 95 90 85 79 84 94 96 95 94 93 91 90 87 85 83 82 82 81 80 77 74 70 67 66 65 65 65 64 63 63 62 62 62 61 60 59 58 56 55 56 57 56 54 54 54 54 55 54 54 54 54 55 57 60 63 66 65 64 63 61 58 56 55 55 57 59 64 71 78 82 84 89 95 98 97 95 92 91 97 106
122 118 114 110 103 96 93 86 81 90 100 101 99 99 98 96 93 90 90 91 89 86 83 79 77 74 70 66 65 65 66 68 69 69 68 66 63 62 61 61 60 59 58 55 54 56 56 54 54 56 55 56 57 57 56 55 56 57 57 60 62 64 64 65 63 60 57 54 53 54 55 58 63 68 73 77 79 82 86 87 84 82 84 98 109
115 112 107 103 98 95 93 88 86 93 100 102 99 94 93 94 92 91 93 94 91 88 85 80 77 75 72 67 66 68 69 70 72 74 72 69 68 67 65 63 62 61 61 58 55 55 56 55 54 56 57 58 58 60 60 58 58 58 58 59 60 62 63 64 64 62 58 56 54 53 53 54 57 61 64 67 70 73 75 75 75 79 84 91 96
115 111 107 102 97 94 94 92 93 95 98 99 97 92 90 90 89 92 97 96 91 88 87 84 82 80 77 71 68 69 70 69 70 73 72 70 70 69 67 63 62 61 61 60 57 55 55 55 54 55 57 58 59 60 61 61 60 60 62 63 64 63 63 64 65 64 60 58 57 55 53 53 53 56 57 59 61 64 66 67 68 71 75 78 83
116 111 108 105 102 100 98 98 98 98 98 99 98 96 94 92 91 95 99 98 94 89 87 88 88 86 83 76 71 70 70 70 70 70 70 68 67 68 68 65 63 61 59 59 59 56 54 53 52 52 54 57 59 59 60 61 61 60 61 63 65 67 67 67 69 68 65 63 60 57 56 55 54 54 54 54 55 56 57 60 63 64 64 66 70
113 111 109 108 108 107 105 103 102 102 102 103 102 100 97 96 99 101 100 101 100 95 91 92 93 93 91 84 78 74 72 71 71 69 68 67 65 65 65 64 64 61 59 59 60 58 55 52 50 49 50 53 56 57 58 59 59 60 60 61 63 64 65 67 68 68 66 64 62 61 60 58 55 53 52 52 52 51 50 50 51 53 55 55 55
117 115 114 113 112 110 108 106 105 104 103 103 104 104 102 102 105 107 105 106 105 101 98 97 95 96 95 90 85 81 77 75 74 72 71 69 67 66 64 63 63 61 60 61 63 63 60 55 51 49 48 50 51 52 53 54 55 57 59 60 61 61 61 62 63 63 61 60 59 58 58 58 56 53 51 51 52 52 52 49 47 46 46 45 45
119 120 121 120 117 115 113 110 108 106 104 103 103 103 105 107 107 106 107 107 106 107 108 106 100 96 94 93 91 90 86 82 78 76 74 72 70 68 65 62 61 60 60 61 62 63 61 56 52 49 48 47 46 44 43 43 45 49 53 55 57 57 56 55 54 53 52 51 51 52 53 53 53 52 51 53 54 55 57 57 56 54 51 47 44
118 121 122 120 117 115 114 111 109 108 107 106 104 103 105 108 107 107 108 105 102 104 109 113 111 103 96 94 94 92 90 88 84 79 77 75 73 71 69 65 61 59 59 59 59 60 59 56 53 49 46 44 41 38 38 37 37 41 47 51 54 54 52 51 50 49 50 50 49 50 49 47 48 49 51 52 52 53 56 59 61 62 61 59 55
114 117 117 114 112 113 113 113 115 117 118 116 112 110 108 105 103 104 104 100 95 93 94 99 109 111 104 97 95 93 91 90 88 85 82 79 77 76 74 72 67 63 61 60 59 58 57 55 54 50 44 42 40 38 37 37 37 40 44 47 49 49 49 49 50 50 52 52 51 49 47 46 45 44 43 43 44 46 50 54 56 56 58 63 62
113 115 115 112 111 112 111 111 113 115 116 114 113 113 113 112 107 104 101 98 95 93 91 92 97 105 110 106 100 96 93 92 92 91 89 86 83 80 78 76 72 67 64 63 62 61 60 59 59 55 50 47 44 41 39 41 45 48 49 49 49 49 49 51 53 54 53 52 52 51 48 46 45 43 41 39 37 36 37 40 44 48 53 54 50
115 114 112 111 112 112 109 107 106 105 102 100 98 98 102 109 112 111 107 104 100 96 94 93 91 92 96 102 104 103 100 96 94 92 92 91 89 84 81 79 75 70 66 65 64 64 64 64 64 63 60 55 50 46 47 54 60 59 57 56 54 55 56 57 57 58 54 50 50 50 48 46 45 44 43 42 39 34 31 32 35 39 41 41 37